Zurück zum Katalog

STARLINK-35983

AktivKommunikationVLEO
NORAD 66902·PAYLOAD·🇺🇸 United States

Gestartet Dec 4, 2025 von Vandenberg Space Force Base

Loading…

Nächste Überflüge (nächste 24 Stunden)

TLE

AktuellSource: CelesTrak SupGP

Epoche: Sep 15, 2026, 03:41 UTC

1 66902C 25283AA  26258.15395833 -.00059426  00000+0 -17561-2 0  2580
2 66902  53.1581 220.6263 0001339  88.8794 187.8320 15.34414734    15

Verfolge STARLINK-35983 in Echtzeit mit AllMySat

Download on the App Store